Weather in Bayka

Russia / Penza Oblast     52°21′33″N   44°13′06″E
В апреле 2022 года жителям России запретили посещать сайт meteo.paraplan.net по решению Генеральной прокуратуры. Аудитория сайта уменьшилась в 10 раз. Владельцы сайта не видят смысла в поддержке погодного сервера в таких условиях. Сайт будет закрыт в октябре.
temp.,
°C
wind,
m/s
gust,
m/s
humid.,
%
clouds,
%
prec.,
mm/h
press.,
hPa
HPBL,
m
3 october, mon
mon300:00+17sse71870100 0.1 1007551
03:00+16se91868100 0.1 1005610
06:00+16sse112159100 0.0 1005782
09:00+17sse121951100 0.0 10061144
12:00+16sse111858100 0.1 10071189
15:00+13sw61183100 3.4 1010899
18:00+12ssw367649 0.0 1013163
21:00+10ssw35790 0.0 101585
4 october, tue
tue400:00+9sse36781 0.0 101686
03:00+9se41082100 0.0 1017186
06:00+10sse5118295 0.0 1017239
09:00+13sse61076100 0.0 1018477
12:00+16s6861100 0.1 10181399
15:00+17s6951100 0.1 10181875
18:00+11sse81483100 0.1 1019485
21:00+11sse71573100 0.1 1019569
5 october, wed
wed500:00+11sse61273100 0.0 1019438
03:00+10sse61188100 0.0 1019390
06:00+10sse61083100 0.2 1018362
09:00+11sse5108097 0.6 1018370
12:00+15ssw6968100 0.4 10171250
15:00+16sw711537 0.8 10171723
18:00+11wsw51062100 0.0 1018306
21:00+10sw51073100 0.1 10181080
6 october, thu
thu600:00+9sw5976100 0.1 1018710
03:00+7wsw598662 0.1 1019453
06:00+5w5986100 0.0 1019363
09:00+8w696918 0.1 1020911
12:00+9w6965100 0.0 10201305
15:00+8w6981100 0.2 1020567
18:00+9sw41186100 1.0 1020644
21:00+10w51089100 1.6 1019595
7 october, fri
fri700:00+10wsw51190100 0.1 1019495
03:00+10wsw51188100 0.4 1018428
06:00+9wsw511941 0.0 1018333
09:00+11w698565 0.0 1019507
12:00+14wnw577317 0.0 1019687
15:00+14wnw777139 0.0 10201049
18:00+10w33790 0.0 102238
21:00+9wnw49840 0.0 1023189